Year,Month,Day,Hour,Minute,Value (Times are PST for windspeed in km/hr)
2019,02,08,00,00,0.20
2019,02,08,00,01,0.10
2019,02,08,00,02,0.00
2019,02,08,00,03,0.00
2019,02,08,00,04,0.00
2019,02,08,00,05,0.00
2019,02,08,00,06,0.00
2019,02,08,00,07,0.00
2019,02,08,00,08,0.00
2019,02,08,00,09,0.00
2019,02,08,00,10,1.00
2019,02,08,00,11,1.40
2019,02,08,00,12,1.20
2019,02,08,00,13,0.50
2019,02,08,00,14,1.20
2019,02,08,00,15,0.30
2019,02,08,00,16,0.30
2019,02,08,00,17,0.10
2019,02,08,00,18,0.00
2019,02,08,00,19,0.00
2019,02,08,00,20,1.30
2019,02,08,00,21,0.60
2019,02,08,00,22,0.00
2019,02,08,00,23,0.40
2019,02,08,00,24,1.10
2019,02,08,00,25,1.20
2019,02,08,00,26,0.80
2019,02,08,00,27,0.00
2019,02,08,00,28,0.00
2019,02,08,00,29,0.00
2019,02,08,00,30,0.00
2019,02,08,00,31,0.00
2019,02,08,00,32,0.00
2019,02,08,00,33,0.00
2019,02,08,00,34,0.20
2019,02,08,00,35,1.30
2019,02,08,00,36,1.00
2019,02,08,00,37,0.00
2019,02,08,00,38,0.00
2019,02,08,00,39,0.00
2019,02,08,00,40,0.30
2019,02,08,00,41,0.50
2019,02,08,00,42,0.00
2019,02,08,00,43,0.00
2019,02,08,00,44,0.00
2019,02,08,00,45,0.00
2019,02,08,00,46,0.00
2019,02,08,00,47,0.60
2019,02,08,00,48,0.60
2019,02,08,00,49,0.40
2019,02,08,00,50,0.70
2019,02,08,00,51,0.20
2019,02,08,00,52,0.90
2019,02,08,00,53,1.10
2019,02,08,00,54,0.70
2019,02,08,00,55,0.50
2019,02,08,00,56,0.00
2019,02,08,00,57,0.00
2019,02,08,00,58,0.00
2019,02,08,00,59,0.00
2019,02,08,01,00,0.00
2019,02,08,01,01,0.00
2019,02,08,01,02,0.00
2019,02,08,01,03,0.00
2019,02,08,01,04,0.20
2019,02,08,01,05,0.00
2019,02,08,01,06,0.00
2019,02,08,01,07,0.00
2019,02,08,01,08,0.00
2019,02,08,01,09,0.00
2019,02,08,01,10,0.00
2019,02,08,01,11,0.20
2019,02,08,01,12,1.30
2019,02,08,01,13,1.50
2019,02,08,01,14,1.90
2019,02,08,01,15,2.00
2019,02,08,01,16,0.90
2019,02,08,01,17,0.00
2019,02,08,01,18,0.00
2019,02,08,01,19,0.00
2019,02,08,01,20,0.40
2019,02,08,01,21,0.00
2019,02,08,01,22,0.00
2019,02,08,01,23,0.20
2019,02,08,01,24,0.40
2019,02,08,01,25,1.70
2019,02,08,01,26,0.40
2019,02,08,01,27,0.00
2019,02,08,01,28,0.00
2019,02,08,01,29,0.00
2019,02,08,01,30,0.00
2019,02,08,01,31,0.00
2019,02,08,01,32,0.00
2019,02,08,01,33,0.00
2019,02,08,01,34,0.00
2019,02,08,01,35,0.00
2019,02,08,01,36,0.00
2019,02,08,01,37,0.00
2019,02,08,01,38,0.00
2019,02,08,01,39,0.00
2019,02,08,01,40,0.00
2019,02,08,01,41,0.00
2019,02,08,01,42,0.00
2019,02,08,01,43,0.00
2019,02,08,01,44,0.00
2019,02,08,01,45,0.00
2019,02,08,01,46,0.00
2019,02,08,01,47,0.00
2019,02,08,01,48,0.00
2019,02,08,01,49,0.00
2019,02,08,01,50,0.00
2019,02,08,01,51,0.00
2019,02,08,01,52,0.00
2019,02,08,01,53,0.00
2019,02,08,01,54,0.00
2019,02,08,01,55,0.00
2019,02,08,01,56,0.20
2019,02,08,01,57,1.60
2019,02,08,01,58,0.80
2019,02,08,01,59,0.10
2019,02,08,02,00,0.00
2019,02,08,02,01,0.00
2019,02,08,02,02,0.50
2019,02,08,02,03,0.00
2019,02,08,02,04,0.70
2019,02,08,02,05,0.90
2019,02,08,02,06,0.70
2019,02,08,02,07,0.20
2019,02,08,02,08,0.00
2019,02,08,02,09,0.00
2019,02,08,02,10,0.00
2019,02,08,02,11,0.00
2019,02,08,02,12,0.80
2019,02,08,02,13,0.30
2019,02,08,02,14,1.40
2019,02,08,02,15,1.70
2019,02,08,02,16,0.50
2019,02,08,02,17,0.20
2019,02,08,02,18,1.10
2019,02,08,02,19,2.20
2019,02,08,02,20,3.00
2019,02,08,02,21,3.90
2019,02,08,02,22,2.00
2019,02,08,02,23,0.80
2019,02,08,02,24,1.30
2019,02,08,02,25,3.70
2019,02,08,02,26,1.30
2019,02,08,02,27,2.70
2019,02,08,02,28,1.50
2019,02,08,02,29,1.70
2019,02,08,02,30,3.00
2019,02,08,02,31,1.60
2019,02,08,02,32,1.40
2019,02,08,02,33,1.10
2019,02,08,02,34,1.50
2019,02,08,02,35,0.70
2019,02,08,02,36,0.30
2019,02,08,02,37,1.20
2019,02,08,02,38,3.00
2019,02,08,02,39,0.80
2019,02,08,02,40,2.10
2019,02,08,02,41,0.50
2019,02,08,02,42,4.60
2019,02,08,02,43,5.70
2019,02,08,02,44,1.10
2019,02,08,02,45,3.10
2019,02,08,02,46,2.10
2019,02,08,02,47,0.30
2019,02,08,02,48,0.20
2019,02,08,02,49,1.50
2019,02,08,02,50,1.40
2019,02,08,02,51,1.40
2019,02,08,02,52,1.60
2019,02,08,02,53,3.00
2019,02,08,02,54,0.80
2019,02,08,02,55,0.70
2019,02,08,02,56,1.90
2019,02,08,02,57,1.70
2019,02,08,02,58,2.50
2019,02,08,02,59,0.10
2019,02,08,03,00,1.60
2019,02,08,03,01,4.10
2019,02,08,03,02,3.30
2019,02,08,03,03,1.50
2019,02,08,03,04,1.50
2019,02,08,03,05,2.20
2019,02,08,03,06,1.50
2019,02,08,03,07,0.30
2019,02,08,03,08,1.50
2019,02,08,03,09,2.30
2019,02,08,03,10,0.40
2019,02,08,03,11,0.50
2019,02,08,03,12,0.80
2019,02,08,03,13,2.00
2019,02,08,03,14,0.60
2019,02,08,03,15,1.50
2019,02,08,03,16,3.50
2019,02,08,03,17,5.00
2019,02,08,03,18,1.90
2019,02,08,03,19,0.50
2019,02,08,03,20,2.30
2019,02,08,03,21,3.90
2019,02,08,03,22,3.70
2019,02,08,03,23,1.80
2019,02,08,03,24,2.20
2019,02,08,03,25,2.00
2019,02,08,03,26,8.10
2019,02,08,03,27,4.10
2019,02,08,03,28,1.90
2019,02,08,03,29,1.90
2019,02,08,03,30,1.40
2019,02,08,03,31,5.40
2019,02,08,03,32,3.70
2019,02,08,03,33,3.10
2019,02,08,03,34,0.60
2019,02,08,03,35,1.00
2019,02,08,03,36,2.30
2019,02,08,03,37,4.20
2019,02,08,03,38,2.60
2019,02,08,03,39,1.20
2019,02,08,03,40,3.30
2019,02,08,03,41,5.20
2019,02,08,03,42,1.40
2019,02,08,03,43,1.50
2019,02,08,03,44,2.70
2019,02,08,03,45,1.60
2019,02,08,03,46,1.80
2019,02,08,03,47,1.60
2019,02,08,03,48,1.40
2019,02,08,03,49,3.90
2019,02,08,03,50,7.00
2019,02,08,03,51,2.10
2019,02,08,03,52,7.30
2019,02,08,03,53,5.90
2019,02,08,03,54,6.00
2019,02,08,03,55,2.30
2019,02,08,03,56,4.20
2019,02,08,03,57,2.10
2019,02,08,03,58,1.50
2019,02,08,03,59,1.10
2019,02,08,04,00,2.20
2019,02,08,04,01,1.60
2019,02,08,04,02,1.40
2019,02,08,04,03,1.80
2019,02,08,04,04,2.80
2019,02,08,04,05,2.80
2019,02,08,04,06,1.40
2019,02,08,04,07,3.50
2019,02,08,04,08,2.30
2019,02,08,04,09,2.90
2019,02,08,04,10,3.40
2019,02,08,04,11,6.10
2019,02,08,04,12,3.70
2019,02,08,04,13,0.90
2019,02,08,04,14,1.50
2019,02,08,04,15,0.50
2019,02,08,04,16,2.90
2019,02,08,04,17,2.90
2019,02,08,04,18,3.10
2019,02,08,04,19,1.10
2019,02,08,04,20,1.40
2019,02,08,04,21,1.00
2019,02,08,04,22,5.10
2019,02,08,04,23,1.20
2019,02,08,04,24,3.50
2019,02,08,04,25,1.10
2019,02,08,04,26,0.70
2019,02,08,04,27,0.80
2019,02,08,04,28,2.00
2019,02,08,04,29,2.10
2019,02,08,04,30,1.90
2019,02,08,04,31,3.10
2019,02,08,04,32,3.70
2019,02,08,04,33,6.20
2019,02,08,04,34,3.70
2019,02,08,04,35,5.60
2019,02,08,04,36,5.50
2019,02,08,04,37,3.60
2019,02,08,04,38,3.10
2019,02,08,04,39,5.10
2019,02,08,04,40,1.60
2019,02,08,04,41,3.10
2019,02,08,04,42,3.10
2019,02,08,04,43,5.50
2019,02,08,04,44,5.40
2019,02,08,04,45,5.40
2019,02,08,04,46,2.10
2019,02,08,04,47,2.50
2019,02,08,04,48,6.40
2019,02,08,04,49,5.10
2019,02,08,04,50,2.70
2019,02,08,04,51,1.10
2019,02,08,04,52,1.90
2019,02,08,04,53,1.00
2019,02,08,04,54,1.90
2019,02,08,04,55,3.60
2019,02,08,04,56,1.00
2019,02,08,04,57,3.30
2019,02,08,04,58,2.40
2019,02,08,04,59,2.50
2019,02,08,05,00,4.00
2019,02,08,05,01,2.90
2019,02,08,05,02,2.50
2019,02,08,05,03,4.10
2019,02,08,05,04,6.20
2019,02,08,05,05,5.00
2019,02,08,05,06,5.40
2019,02,08,05,07,5.60
2019,02,08,05,08,5.70
2019,02,08,05,09,5.60
2019,02,08,05,10,3.70
2019,02,08,05,11,5.60
2019,02,08,05,12,6.10
2019,02,08,05,13,8.30
2019,02,08,05,14,6.20
2019,02,08,05,15,4.60
2019,02,08,05,16,1.70
2019,02,08,05,17,2.70
2019,02,08,05,18,4.50
2019,02,08,05,19,3.90
2019,02,08,05,20,7.80
2019,02,08,05,21,6.90
2019,02,08,05,22,5.80
2019,02,08,05,23,2.20
2019,02,08,05,24,4.40
2019,02,08,05,25,5.60
2019,02,08,05,26,3.40
2019,02,08,05,27,4.50
2019,02,08,05,28,3.90
2019,02,08,05,29,2.10
2019,02,08,05,30,3.30
2019,02,08,05,31,5.10
2019,02,08,05,32,1.70
2019,02,08,05,33,2.80
2019,02,08,05,34,3.90
2019,02,08,05,35,4.80
2019,02,08,05,36,4.70
2019,02,08,05,37,2.50
2019,02,08,05,38,1.50
2019,02,08,05,39,2.20
2019,02,08,05,40,2.30
2019,02,08,05,41,2.30
2019,02,08,05,42,1.60
2019,02,08,05,43,2.00
2019,02,08,05,44,2.90
2019,02,08,05,45,3.00
2019,02,08,05,46,2.90
2019,02,08,05,47,7.30
2019,02,08,05,48,3.40
2019,02,08,05,49,4.10
2019,02,08,05,50,1.40
2019,02,08,05,51,1.10
2019,02,08,05,52,2.30
2019,02,08,05,53,6.30
2019,02,08,05,54,4.30
2019,02,08,05,55,1.90
2019,02,08,05,56,2.30
2019,02,08,05,57,1.90
2019,02,08,05,58,2.60
2019,02,08,05,59,1.70
2019,02,08,06,00,5.20
2019,02,08,06,01,2.80
2019,02,08,06,02,0.50
2019,02,08,06,03,2.10
2019,02,08,06,04,3.00
2019,02,08,06,05,7.20
2019,02,08,06,06,4.90
2019,02,08,06,07,2.20
2019,02,08,06,08,3.70
2019,02,08,06,09,5.80
2019,02,08,06,10,6.80
2019,02,08,06,11,6.70
2019,02,08,06,12,1.90
2019,02,08,06,13,0.90
2019,02,08,06,14,4.80
2019,02,08,06,15,4.10
2019,02,08,06,16,5.90
2019,02,08,06,17,1.20
2019,02,08,06,18,1.10
2019,02,08,06,19,4.80
2019,02,08,06,20,3.50
2019,02,08,06,21,2.80
2019,02,08,06,22,1.50
2019,02,08,06,23,3.50
2019,02,08,06,24,2.20
2019,02,08,06,25,1.40
2019,02,08,06,26,2.50
2019,02,08,06,27,3.50
2019,02,08,06,28,3.10
2019,02,08,06,29,0.90
2019,02,08,06,30,1.80
2019,02,08,06,31,2.60
2019,02,08,06,32,1.30
2019,02,08,06,33,4.50
2019,02,08,06,34,4.40
2019,02,08,06,35,2.00
2019,02,08,06,36,2.00
2019,02,08,06,37,5.50
2019,02,08,06,38,4.00
2019,02,08,06,39,3.40
2019,02,08,06,40,2.60
2019,02,08,06,41,3.80
2019,02,08,06,42,3.40
2019,02,08,06,43,5.20
2019,02,08,06,44,7.80
2019,02,08,06,45,8.30
2019,02,08,06,46,5.60
2019,02,08,06,47,2.60
2019,02,08,06,48,1.80
2019,02,08,06,49,4.20
2019,02,08,06,50,3.30
2019,02,08,06,51,3.60
2019,02,08,06,52,3.10
2019,02,08,06,53,3.20
2019,02,08,06,54,6.90
2019,02,08,06,55,7.10
2019,02,08,06,56,8.40
2019,02,08,06,57,4.20
2019,02,08,06,58,3.30
2019,02,08,06,59,4.90
2019,02,08,07,00,3.00
2019,02,08,07,01,6.50
2019,02,08,07,02,7.30
2019,02,08,07,03,2.50
2019,02,08,07,04,2.20
2019,02,08,07,05,4.10
2019,02,08,07,06,7.20
2019,02,08,07,07,6.30
2019,02,08,07,08,6.50
2019,02,08,07,09,6.50
2019,02,08,07,10,3.00
2019,02,08,07,11,5.90
2019,02,08,07,12,7.00
2019,02,08,07,13,2.30
2019,02,08,07,14,6.80
2019,02,08,07,15,5.00
2019,02,08,07,16,4.00
2019,02,08,07,17,4.80
2019,02,08,07,18,3.00
2019,02,08,07,19,4.40
2019,02,08,07,20,3.00
2019,02,08,07,21,3.20
2019,02,08,07,22,6.30
2019,02,08,07,23,3.80
2019,02,08,07,24,4.60
2019,02,08,07,25,2.60
2019,02,08,07,26,4.70
2019,02,08,07,27,7.00
2019,02,08,07,28,3.60
2019,02,08,07,29,6.60
2019,02,08,07,30,5.50
2019,02,08,07,31,3.90
2019,02,08,07,32,3.90
2019,02,08,07,33,5.50
2019,02,08,07,34,6.80
2019,02,08,07,35,5.80
2019,02,08,07,36,3.90
2019,02,08,07,37,3.80
2019,02,08,07,38,2.10
2019,02,08,07,39,2.50
2019,02,08,07,40,3.00
2019,02,08,07,41,4.40
2019,02,08,07,42,3.70
2019,02,08,07,43,1.50
2019,02,08,07,44,1.00
2019,02,08,07,45,2.10
2019,02,08,07,46,2.70
2019,02,08,07,47,2.50
2019,02,08,07,48,5.30
2019,02,08,07,49,1.20
2019,02,08,07,50,2.30
2019,02,08,07,51,3.00
2019,02,08,07,52,2.30
2019,02,08,07,53,5.10
2019,02,08,07,54,3.90
2019,02,08,07,55,1.50
2019,02,08,07,56,2.00
2019,02,08,07,57,2.40
2019,02,08,07,58,2.30
2019,02,08,07,59,6.30
2019,02,08,08,00,3.40
2019,02,08,08,01,3.40
2019,02,08,08,02,7.20
2019,02,08,08,03,4.20
2019,02,08,08,04,5.40
2019,02,08,08,05,2.40
2019,02,08,08,06,3.00
2019,02,08,08,07,8.60
2019,02,08,08,08,7.90
2019,02,08,08,09,2.50
2019,02,08,08,10,3.20
2019,02,08,08,11,5.50
2019,02,08,08,12,4.90
2019,02,08,08,13,5.90
2019,02,08,08,14,7.20
2019,02,08,08,15,5.60
2019,02,08,08,16,2.70
2019,02,08,08,17,8.10
2019,02,08,08,18,3.50
2019,02,08,08,19,0.30
2019,02,08,08,20,8.10
2019,02,08,08,21,4.30
2019,02,08,08,22,0.50
2019,02,08,08,23,8.40
2019,02,08,08,24,4.50
2019,02,08,08,25,4.10
2019,02,08,08,26,2.60
2019,02,08,08,27,3.50
2019,02,08,08,28,8.60
2019,02,08,08,29,5.70
2019,02,08,08,30,5.10
2019,02,08,08,31,4.30
2019,02,08,08,32,4.70
2019,02,08,08,33,3.20
2019,02,08,08,34,5.30
2019,02,08,08,35,1.90
2019,02,08,08,36,3.50
2019,02,08,08,37,3.80
2019,02,08,08,38,6.30
2019,02,08,08,39,4.60
2019,02,08,08,40,4.50
2019,02,08,08,41,2.70
2019,02,08,08,42,6.40
2019,02,08,08,43,4.40
2019,02,08,08,44,2.70
2019,02,08,08,45,5.40
2019,02,08,08,46,5.10
2019,02,08,08,47,3.00
2019,02,08,08,48,3.50
2019,02,08,08,49,6.10
2019,02,08,08,50,5.20
2019,02,08,08,51,4.20
2019,02,08,08,52,6.90
2019,02,08,08,53,4.50
2019,02,08,08,54,7.00
2019,02,08,08,55,5.50
2019,02,08,08,56,4.80
2019,02,08,08,57,7.00
2019,02,08,08,58,3.60
2019,02,08,08,59,2.40
2019,02,08,09,00,3.10
2019,02,08,09,01,3.90
2019,02,08,09,02,4.70
2019,02,08,09,03,2.10
2019,02,08,09,04,5.80
2019,02,08,09,05,4.70
2019,02,08,09,06,4.00
2019,02,08,09,07,2.50
2019,02,08,09,08,1.90
2019,02,08,09,09,4.70
2019,02,08,09,10,2.50
2019,02,08,09,11,3.10
2019,02,08,09,12,6.80
2019,02,08,09,13,3.90
2019,02,08,09,14,1.90
2019,02,08,09,15,4.70
2019,02,08,09,16,3.30
2019,02,08,09,17,3.90
2019,02,08,09,18,5.80
2019,02,08,09,19,6.40
2019,02,08,09,20,5.00
2019,02,08,09,21,6.70
2019,02,08,09,22,5.30
2019,02,08,09,23,5.40
2019,02,08,09,24,6.40
2019,02,08,09,25,3.40
2019,02,08,09,26,5.40
2019,02,08,09,27,4.60
2019,02,08,09,28,4.90
2019,02,08,09,29,4.40
2019,02,08,09,30,6.40
2019,02,08,09,31,7.10
2019,02,08,09,32,7.20
2019,02,08,09,33,6.00
2019,02,08,09,34,6.70
2019,02,08,09,35,3.80
2019,02,08,09,36,5.10
2019,02,08,09,37,5.00
2019,02,08,09,38,5.00
2019,02,08,09,39,5.60
2019,02,08,09,40,7.50
2019,02,08,09,41,5.90
2019,02,08,09,42,6.30
2019,02,08,09,43,5.70
2019,02,08,09,44,7.60
2019,02,08,09,45,1.90
2019,02,08,09,46,4.30
2019,02,08,09,47,5.60
2019,02,08,09,48,3.10
2019,02,08,09,49,5.50
2019,02,08,09,50,1.50
2019,02,08,09,51,1.60
2019,02,08,09,52,1.60
2019,02,08,09,53,1.90
2019,02,08,09,54,7.50
2019,02,08,09,55,6.00
2019,02,08,09,56,4.00
2019,02,08,09,57,3.10
2019,02,08,09,58,2.00
2019,02,08,09,59,5.40
2019,02,08,10,00,1.20
2019,02,08,10,01,2.00
2019,02,08,10,02,1.70
2019,02,08,10,03,1.60
2019,02,08,10,04,1.60
2019,02,08,10,05,1.80
2019,02,08,10,06,0.60
2019,02,08,10,07,3.90
2019,02,08,10,08,3.80
2019,02,08,10,09,5.50
2019,02,08,10,10,3.50
2019,02,08,10,11,0.50
2019,02,08,10,12,2.00
2019,02,08,10,13,4.40
2019,02,08,10,14,1.00
2019,02,08,10,15,1.40
2019,02,08,10,16,1.20
2019,02,08,10,17,4.30
2019,02,08,10,18,7.00
2019,02,08,10,19,1.90
2019,02,08,10,20,4.80
2019,02,08,10,21,1.50
2019,02,08,10,22,1.90
2019,02,08,10,23,1.90
2019,02,08,10,24,5.10
2019,02,08,10,25,6.60
2019,02,08,10,26,1.50
2019,02,08,10,27,3.10
2019,02,08,10,28,3.70
2019,02,08,10,29,3.30
2019,02,08,10,30,4.00
2019,02,08,10,31,3.40
2019,02,08,10,32,3.40
2019,02,08,10,33,2.70
2019,02,08,10,34,4.00
2019,02,08,10,35,4.00
2019,02,08,10,36,4.80
2019,02,08,10,37,1.90
2019,02,08,10,38,0.80
2019,02,08,10,39,2.00
2019,02,08,10,40,7.00
2019,02,08,10,41,6.30
2019,02,08,10,42,7.80
2019,02,08,10,43,4.50
2019,02,08,10,44,5.10
2019,02,08,10,45,3.50
2019,02,08,10,46,3.50
2019,02,08,10,47,5.60
2019,02,08,10,48,4.10
2019,02,08,10,49,3.00
2019,02,08,10,50,4.30
2019,02,08,10,51,4.80
2019,02,08,10,52,2.60
2019,02,08,10,53,5.00
2019,02,08,10,54,1.40
2019,02,08,10,55,1.60
2019,02,08,10,56,1.90
2019,02,08,10,57,3.10
2019,02,08,10,58,4.50
2019,02,08,10,59,0.80
2019,02,08,11,00,2.40
2019,02,08,11,01,2.50
2019,02,08,11,02,1.80
2019,02,08,11,03,2.00
2019,02,08,11,04,6.40
2019,02,08,11,05,1.30
2019,02,08,11,06,2.70
2019,02,08,11,07,3.00
2019,02,08,11,08,3.40
2019,02,08,11,09,5.90
2019,02,08,11,10,5.80
2019,02,08,11,11,4.30
2019,02,08,11,12,5.50
2019,02,08,11,13,2.60
2019,02,08,11,14,2.60
2019,02,08,11,15,4.70
2019,02,08,11,16,3.10
2019,02,08,11,17,4.60
2019,02,08,11,18,5.80
2019,02,08,11,19,0.60
2019,02,08,11,20,0.00
2019,02,08,11,21,5.30
2019,02,08,11,22,2.70
2019,02,08,11,23,3.60
2019,02,08,11,24,2.70
2019,02,08,11,25,1.80
2019,02,08,11,26,2.20
2019,02,08,11,27,4.20
2019,02,08,11,28,2.80
2019,02,08,11,29,2.60
2019,02,08,11,30,3.90
2019,02,08,11,31,0.50
2019,02,08,11,32,1.90
2019,02,08,11,33,3.10
2019,02,08,11,34,3.20
2019,02,08,11,35,4.30
2019,02,08,11,36,1.30
2019,02,08,11,37,5.20
2019,02,08,11,38,3.60
2019,02,08,11,39,5.20
2019,02,08,11,40,5.00
2019,02,08,11,41,1.90
2019,02,08,11,42,1.50
2019,02,08,11,43,3.70
2019,02,08,11,44,1.90
2019,02,08,11,45,0.70
2019,02,08,11,46,1.60
2019,02,08,11,47,4.00
2019,02,08,11,48,2.40
2019,02,08,11,49,0.70
2019,02,08,11,50,3.00
2019,02,08,11,51,2.80
2019,02,08,11,52,0.40
2019,02,08,11,53,0.30
2019,02,08,11,54,0.40
2019,02,08,11,55,3.70
2019,02,08,11,56,1.80
2019,02,08,11,57,1.90
2019,02,08,11,58,4.00
2019,02,08,11,59,0.20
2019,02,08,12,00,1.20
2019,02,08,12,01,1.90
2019,02,08,12,02,2.40
2019,02,08,12,03,3.00
2019,02,08,12,04,0.30
2019,02,08,12,05,0.80
2019,02,08,12,06,1.50
2019,02,08,12,07,2.20
2019,02,08,12,08,2.00
2019,02,08,12,09,1.70
2019,02,08,12,10,3.30
2019,02,08,12,11,2.10
2019,02,08,12,12,4.40
2019,02,08,12,13,2.00
2019,02,08,12,14,3.50
2019,02,08,12,15,3.00
2019,02,08,12,16,3.60
2019,02,08,12,17,4.00
2019,02,08,12,18,5.70
2019,02,08,12,19,3.40
2019,02,08,12,20,5.40
2019,02,08,12,21,4.10
2019,02,08,12,22,2.40
2019,02,08,12,23,5.10
2019,02,08,12,24,5.40
2019,02,08,12,25,5.70
2019,02,08,12,26,4.70
2019,02,08,12,27,5.70
2019,02,08,12,28,3.20
2019,02,08,12,29,1.70
2019,02,08,12,30,3.00
2019,02,08,12,31,4.10
2019,02,08,12,32,3.50
2019,02,08,12,33,3.60
2019,02,08,12,34,4.00
2019,02,08,12,35,4.30
2019,02,08,12,36,6.00
2019,02,08,12,37,3.90
2019,02,08,12,38,5.10
2019,02,08,12,39,5.10
2019,02,08,12,40,5.20
2019,02,08,12,41,3.00
2019,02,08,12,42,4.00
2019,02,08,12,43,3.90
2019,02,08,12,44,3.30
2019,02,08,12,45,4.20
2019,02,08,12,46,2.50
2019,02,08,12,47,5.70
2019,02,08,12,48,6.90
2019,02,08,12,49,6.70
2019,02,08,12,50,6.40
2019,02,08,12,51,6.10
2019,02,08,12,52,5.20
2019,02,08,12,53,5.80
2019,02,08,12,54,4.10
2019,02,08,12,55,6.40
2019,02,08,12,56,10.50
2019,02,08,12,57,7.20
2019,02,08,12,58,9.30
2019,02,08,12,59,7.20
2019,02,08,13,00,7.40
2019,02,08,13,01,8.00
2019,02,08,13,02,6.90
2019,02,08,13,03,7.10
2019,02,08,13,04,9.40
2019,02,08,13,05,8.90
2019,02,08,13,06,8.50
2019,02,08,13,07,11.70
2019,02,08,13,08,12.70
2019,02,08,13,09,10.40
2019,02,08,13,10,9.70
2019,02,08,13,11,10.90
2019,02,08,13,12,13.70
2019,02,08,13,13,8.60
2019,02,08,13,14,10.20
2019,02,08,13,15,10.70
2019,02,08,13,16,9.50
2019,02,08,13,17,15.30
2019,02,08,13,18,15.30
2019,02,08,13,19,10.90
2019,02,08,13,20,13.20
2019,02,08,13,21,13.30
2019,02,08,13,22,7.20
2019,02,08,13,23,4.70
2019,02,08,13,24,12.00
2019,02,08,13,25,7.40
2019,02,08,13,26,5.50
2019,02,08,13,27,6.80
2019,02,08,13,28,10.90
2019,02,08,13,29,9.80
2019,02,08,13,30,9.10
2019,02,08,13,31,9.20
2019,02,08,13,32,6.70
2019,02,08,13,33,10.10
2019,02,08,13,34,8.40
2019,02,08,13,35,9.30
2019,02,08,13,36,7.50
2019,02,08,13,37,3.70
2019,02,08,13,38,4.40
2019,02,08,13,39,8.50
2019,02,08,13,40,7.30
2019,02,08,13,41,7.50
2019,02,08,13,42,2.10
2019,02,08,13,43,2.60
2019,02,08,13,44,8.10
2019,02,08,13,45,6.40
2019,02,08,13,46,3.70
2019,02,08,13,47,5.40
2019,02,08,13,48,5.70
2019,02,08,13,49,6.40
2019,02,08,13,50,6.20
2019,02,08,13,51,8.10
2019,02,08,13,52,4.30
2019,02,08,13,53,5.90
2019,02,08,13,54,4.80
2019,02,08,13,55,6.90
2019,02,08,13,56,5.70
2019,02,08,13,57,6.90
2019,02,08,13,58,5.40
2019,02,08,13,59,2.50
2019,02,08,14,00,2.50
2019,02,08,14,01,0.50
2019,02,08,14,02,0.00
2019,02,08,14,03,2.50
2019,02,08,14,04,3.00
2019,02,08,14,05,4.10
2019,02,08,14,06,3.90
2019,02,08,14,07,8.00
2019,02,08,14,08,5.90
2019,02,08,14,09,4.50
2019,02,08,14,10,3.40
2019,02,08,14,11,3.20
2019,02,08,14,12,5.10
2019,02,08,14,13,5.20
2019,02,08,14,14,4.40
2019,02,08,14,15,4.30
2019,02,08,14,16,1.10
2019,02,08,14,17,1.90
2019,02,08,14,18,4.60
2019,02,08,14,19,1.40
2019,02,08,14,20,1.90
2019,02,08,14,21,0.80
2019,02,08,14,22,2.70
2019,02,08,14,23,2.70
2019,02,08,14,24,0.00
2019,02,08,14,25,0.60
2019,02,08,14,26,1.70
2019,02,08,14,27,2.40
2019,02,08,14,28,1.50
2019,02,08,14,29,1.00
2019,02,08,14,30,1.80
2019,02,08,14,31,1.90
2019,02,08,14,32,1.60
2019,02,08,14,33,2.90
2019,02,08,14,34,1.60
2019,02,08,14,35,1.50
2019,02,08,14,36,1.00
2019,02,08,14,37,1.40
2019,02,08,14,38,3.90
2019,02,08,14,39,1.90
2019,02,08,14,40,3.30
2019,02,08,14,41,1.90
2019,02,08,14,42,1.90
2019,02,08,14,43,2.00
2019,02,08,14,44,1.00
2019,02,08,14,45,0.10
2019,02,08,14,46,0.00
2019,02,08,14,47,0.00
2019,02,08,14,48,0.20
2019,02,08,14,49,0.00
2019,02,08,14,50,0.00
2019,02,08,14,51,0.00
2019,02,08,14,52,1.40
2019,02,08,14,53,2.90
2019,02,08,14,54,6.10
2019,02,08,14,55,2.10
2019,02,08,14,56,1.60
2019,02,08,14,57,0.80
2019,02,08,14,58,2.20
2019,02,08,14,59,4.70
2019,02,08,15,00,5.50
2019,02,08,15,01,5.10
2019,02,08,15,02,5.30
2019,02,08,15,03,5.60
2019,02,08,15,04,5.20
2019,02,08,15,05,4.50
2019,02,08,15,06,5.60
2019,02,08,15,07,4.30
2019,02,08,15,08,4.10
2019,02,08,15,09,5.10
2019,02,08,15,10,4.90
2019,02,08,15,11,4.70
2019,02,08,15,12,4.30
2019,02,08,15,13,4.30
2019,02,08,15,14,3.00
2019,02,08,15,15,3.90
2019,02,08,15,16,4.70
2019,02,08,15,17,1.50
2019,02,08,15,18,1.50
2019,02,08,15,19,1.80
2019,02,08,15,20,2.10
2019,02,08,15,21,1.10
2019,02,08,15,22,1.50
2019,02,08,15,23,1.50
2019,02,08,15,24,0.80
2019,02,08,15,25,0.60
2019,02,08,15,26,0.50
2019,02,08,15,27,0.30
2019,02,08,15,28,1.00
2019,02,08,15,29,2.40
2019,02,08,15,30,0.80
2019,02,08,15,31,0.90
2019,02,08,15,32,0.20
2019,02,08,15,33,0.00
2019,02,08,15,34,0.00
2019,02,08,15,35,0.00
2019,02,08,15,36,0.00
2019,02,08,15,37,0.00
2019,02,08,15,38,0.90
2019,02,08,15,39,1.10
2019,02,08,15,40,0.10
2019,02,08,15,41,0.00
2019,02,08,15,42,0.00
2019,02,08,15,43,0.70
2019,02,08,15,44,3.40
2019,02,08,15,45,3.20
2019,02,08,15,46,2.80
2019,02,08,15,47,0.10
2019,02,08,15,48,0.00
2019,02,08,15,49,0.00
2019,02,08,15,50,0.00
2019,02,08,15,51,0.00
2019,02,08,15,52,0.00
2019,02,08,15,53,0.00
2019,02,08,15,54,0.00
2019,02,08,15,55,0.00
2019,02,08,15,56,0.00
2019,02,08,15,57,0.10
2019,02,08,15,58,0.00
2019,02,08,15,59,0.00
2019,02,08,16,00,0.00
2019,02,08,16,01,0.00
2019,02,08,16,02,0.00
2019,02,08,16,03,0.00
2019,02,08,16,04,0.00
2019,02,08,16,05,0.00
2019,02,08,16,06,0.00
2019,02,08,16,07,0.00
2019,02,08,16,08,0.00
2019,02,08,16,09,0.00
2019,02,08,16,10,0.00
2019,02,08,16,11,0.70
2019,02,08,16,12,1.20
2019,02,08,16,13,0.60
2019,02,08,16,14,0.00
2019,02,08,16,15,0.00
2019,02,08,16,16,0.60
2019,02,08,16,17,2.50
2019,02,08,16,18,1.50
2019,02,08,16,19,1.00
2019,02,08,16,20,0.00
2019,02,08,16,21,0.00
2019,02,08,16,22,0.00
2019,02,08,16,23,0.00
2019,02,08,16,24,0.00
2019,02,08,16,25,0.00
2019,02,08,16,26,0.00
2019,02,08,16,27,0.00
2019,02,08,16,28,0.00
2019,02,08,16,29,0.00
2019,02,08,16,30,1.30
2019,02,08,16,31,2.80
2019,02,08,16,32,1.60
2019,02,08,16,33,1.50
2019,02,08,16,34,2.30
2019,02,08,16,35,1.90
2019,02,08,16,36,1.90
2019,02,08,16,37,2.90
2019,02,08,16,38,2.70
2019,02,08,16,39,2.50
2019,02,08,16,40,2.30
2019,02,08,16,41,1.80
2019,02,08,16,42,0.30
2019,02,08,16,43,0.00
2019,02,08,16,44,0.00
2019,02,08,16,45,0.00
2019,02,08,16,46,0.00
2019,02,08,16,47,0.60
2019,02,08,16,48,1.40
2019,02,08,16,49,1.50
2019,02,08,16,50,0.90
2019,02,08,16,51,0.10
2019,02,08,16,52,0.00
2019,02,08,16,53,0.00
2019,02,08,16,54,0.50
2019,02,08,16,55,0.00
2019,02,08,16,56,0.00
2019,02,08,16,57,0.00
2019,02,08,16,58,0.00
2019,02,08,16,59,0.00
2019,02,08,17,00,0.00
2019,02,08,17,01,0.00
2019,02,08,17,02,0.00
2019,02,08,17,03,0.00
2019,02,08,17,04,0.00
2019,02,08,17,05,0.00
2019,02,08,17,06,0.00
2019,02,08,17,07,0.00
2019,02,08,17,08,0.00
2019,02,08,17,09,0.00
2019,02,08,17,10,0.00
2019,02,08,17,11,0.00
2019,02,08,17,12,0.00
2019,02,08,17,13,0.00
2019,02,08,17,14,0.00
2019,02,08,17,15,0.00
2019,02,08,17,16,0.00
2019,02,08,17,17,0.00
2019,02,08,17,18,0.00
2019,02,08,17,19,0.00
2019,02,08,17,20,0.00
2019,02,08,17,21,0.00
2019,02,08,17,22,0.00
2019,02,08,17,23,0.00
2019,02,08,17,24,0.00
2019,02,08,17,25,0.00
2019,02,08,17,26,0.00
2019,02,08,17,27,0.00
2019,02,08,17,28,0.00
2019,02,08,17,29,0.00
2019,02,08,17,30,1.70
2019,02,08,17,31,2.30
2019,02,08,17,32,3.80
2019,02,08,17,33,1.90
2019,02,08,17,34,2.50
2019,02,08,17,35,2.50
2019,02,08,17,36,0.80
2019,02,08,17,37,1.00
2019,02,08,17,38,1.00
2019,02,08,17,39,1.80
2019,02,08,17,40,2.50
2019,02,08,17,41,2.20
2019,02,08,17,42,0.70
2019,02,08,17,43,2.00
2019,02,08,17,44,1.30
2019,02,08,17,45,0.50
2019,02,08,17,46,0.80
2019,02,08,17,47,0.30
2019,02,08,17,48,0.20
2019,02,08,17,49,0.70
2019,02,08,17,50,0.30
2019,02,08,17,51,0.00
2019,02,08,17,52,1.30
2019,02,08,17,53,1.50
2019,02,08,17,54,2.50
2019,02,08,17,55,2.80
2019,02,08,17,56,3.50
2019,02,08,17,57,3.50
2019,02,08,17,58,4.70
2019,02,08,17,59,3.20
2019,02,08,18,00,3.10
2019,02,08,18,01,1.60
2019,02,08,18,02,0.90
2019,02,08,18,03,1.50
2019,02,08,18,04,0.70
2019,02,08,18,05,0.00